DW3319 Weather Reports


Display with metric or nautical units.
time (UTC)temp
F
wind
direction
speed
MPH
gust
MPH
rain 1hr
in
rain 24hr
in
rain mn
in
humidity
%
barometer
mb
20260508233047 70 51 1.0 4.0 0.00 2.18 2.18 99 1010.6
20260508231548 70 19 1.0 4.0 0.00 2.18 2.18 99 1010.8
20260508230046 70 153 0.0 3.0 0.00 2.18 2.18 98 1010.7
20260508224552 70 34 1.0 4.0 0.00 2.18 2.18 98 1010.9
20260508223041 70 46 1.0 5.0 0.00 2.18 2.18 98 1010.9
20260508221541 70 168 1.0 4.0 0.00 2.18 2.18 99 1010.4
20260508220046 70 150 2.0 5.0 0.01 2.18 2.18 98 1010.4
20260508214546 70 221 2.0 6.0 0.01 2.18 2.18 98 1010.5
20260508213041 70 61 0.0 4.0 0.01 2.18 2.18 99 1011.0
20260508211541 69 301 0.0 3.0 0.02 2.18 2.18 98 1011.5
20260508210045 69 34 1.0 3.0 0.02 2.17 2.17 98 1011.6
20260508204539 70 178 1.0 6.0 0.02 2.17 2.17 98 1011.0
20260508203043 70 301 2.0 6.0 0.02 2.17 2.17 98 1010.8
20260508201543 69 111 1.0 6.0 0.01 2.16 2.16 99 1011.3
20260508200046 69 0 0.0 2.0 0.00 2.15 2.15 98 1011.6
20260508194556 69 137 0.0 3.0 0.00 2.15 2.15 99 1011.6
20260508193100 69 309 1.0 6.0 0.00 2.15 2.15 99 1011.7
20260508191546 69 265 1.0 4.0 0.00 2.15 2.15 99 1011.6
20260508190107 68 109 1.0 3.0 0.00 2.15 2.15 99 1011.9
20260508184544 68 146 2.0 6.0 0.00 2.15 2.15 99 1012.1
20260508183047 67 168 2.0 6.0 0.00 2.15 2.15 99 1012.2
20260508181551 67 115 3.0 8.0 0.00 2.15 2.15 99 1011.8
20260508180046 67 238 2.0 7.0 0.08 2.15 2.15 99 1011.9
20260508174548 67 165 3.0 9.0 0.08 2.15 2.15 99 1012.5
20260508173044 66 173 2.0 6.0 0.11 2.15 2.15 100 1013.1
20260508171545 64 156 1.0 6.0 0.29 2.15 2.15 99 1013.6
20260508170044 64 137 1.0 3.0 1.04 2.07 2.07 99 1013.5
20260508164538 64 72 1.0 9.0 1.54 2.07 2.07 99 1014.1
20260508163058 64 20 4.0 11.0 1.51 2.03 2.03 99 1014.4
20260508161554 64 182 3.0 9.0 1.45 1.84 1.84 98 1014.1
20260508160043 64 9 1.0 8.0 0.87 0.98 0.98 98 1014.1
20260508154546 64 51 3.0 5.0 0.46 0.52 0.52 98 1013.5
20260508153100 64 51 1.0 4.0 0.49 0.52 0.52 98 1013.7
20260508151541 64 265 2.0 6.0 0.34 0.36 0.36 98 1013.8
20260508150043 64 9 1.0 4.0 0.08 0.10 0.10 98 1014.1
20260508144543 64 38 2.0 6.0 0.05 0.06 0.06 98 1014.0
20260508143103 64 9 1.0 5.0 0.03 0.03 0.03 98 1014.3
20260508141546 64 9 2.0 7.0 0.02 0.02 0.02 98 1014.5
20260508140041 64 67 1.0 5.0 0.02 0.02 0.02 98 1014.2
20260508134545 64 346 1.0 5.0 0.01 0.01 0.01 98 1014.3
20260508133042 64 178 1.0 5.0 0.00 0.00 0.00 98 1013.9
20260508131546 64 26 2.0 5.0 0.00 0.00 0.00 98 1013.7
20260508130051 64 31 1.0 4.0 0.00 0.00 0.00 98 1013.5
20260508124542 64 153 1.0 4.0 0.00 0.00 0.00 98 1013.5
20260508123048 63 51 1.0 3.0 0.00 0.00 0.00 98 1013.7
20260508121546 63 338 1.0 4.0 0.00 0.00 0.00 97 1014.0
20260508120055 63 325 2.0 5.0 0.00 0.00 0.00 97 1013.7
20260508114542 63 309 1.0 6.0 0.00 0.00 0.00 97 1013.3
20260508113041 63 309 1.0 4.0 0.00 0.00 0.00 97 1013.2
20260508111544 63 158 2.0 6.0 0.00 0.00 0.00 97 1013.1
20260508110048 63 137 0.0 4.0 0.00 0.00 0.00 96 1013.8
20260508104542 63 22 1.0 4.0 0.00 0.00 0.00 96 1014.0
20260508103046 63 51 0.0 3.0 0.00 0.00 0.00 96 1014.3
20260508101541 63 115 1.0 3.0 0.00 0.00 0.00 95 1014.1
20260508100055 63 34 1.0 4.0 0.00 0.00 0.00 95 1014.0
20260508094544 64 26 1.0 6.0 0.00 0.00 0.00 94 1014.0
20260508093043 64 9 2.0 5.0 0.00 0.00 0.00 94 1014.0
20260508091604 64 93 2.0 5.0 0.00 0.00 0.00 93 1013.9
20260508090047 64 67 1.0 5.0 0.00 0.00 0.00 92 1013.3
20260508084538 64 346 2.0 8.0 0.00 0.00 0.00 92 1013.1
20260508083044 64 34 2.0 8.0 0.00 0.00 0.00 91 1013.3
20260508081606 64 146 1.0 9.0 0.00 0.00 0.00 91 1013.5
20260508080040 64 0 1.0 4.0 0.00 0.00 0.00 91 1013.6
20260508074543 64 64 1.0 5.0 0.00 0.00 0.00 92 1014.1
20260508073044 64 309 1.0 4.0 0.00 0.00 0.00 92 1013.5
20260508071544 64 9 1.0 4.0 0.00 0.00 0.00 92 1014.0
20260508070044 64 338 1.0 3.0 0.00 0.00 0.00 92 1014.0
20260508064542 64 51 1.0 5.0 0.00 0.03 0.00 92 1014.8
20260508063045 64 137 1.0 5.0 0.00 0.03 0.00 92 1013.5
20260508061545 64 149 2.0 7.0 0.00 0.03 0.00 92 1013.2
20260508060057 64 132 1.0 4.0 0.00 0.03 0.00 92 1013.6
20260508054613 64 309 1.0 4.0 0.00 0.03 0.00 92 1014.3
20260508053049 65 126 1.0 6.0 0.00 0.03 0.00 92 1015.0
20260508051542 65 137 1.0 5.0 0.00 0.03 0.00 92 1015.0
20260508050048 65 153 1.0 4.0 0.00 0.03 0.00 92 1014.9
20260508044546 65 323 1.0 3.0 0.00 0.03 0.03 92 1015.5
20260508043051 65 338 0.0 4.0 0.00 0.03 0.03 92 1015.7
20260508041543 66 334 1.0 3.0 0.00 0.03 0.03 92 1015.7
20260508040039 66 178 0.0 2.0 0.00 0.03 0.03 92 1015.6
20260508034550 66 137 1.0 3.0 0.00 0.03 0.03 91 1015.9
20260508033045 66 178 1.0 5.0 0.00 0.03 0.03 91 1015.2
20260508031551 66 78 1.0 3.0 0.00 0.03 0.03 91 1015.4
20260508030045 67 51 1.0 3.0 0.00 0.03 0.03 91 1015.3
20260508024544 67 101 1.0 4.0 0.00 0.03 0.03 91 1014.9
20260508023037 67 221 1.0 3.0 0.00 0.03 0.03 91 1015.2
20260508021537 67 9 1.0 5.0 0.00 0.03 0.03 90 1015.0
20260508020053 68 309 1.0 3.0 0.00 0.03 0.03 89 1014.4
20260508014544 68 301 1.0 4.0 0.00 0.03 0.03 89 1014.0
20260508013044 69 291 1.0 3.0 0.00 0.03 0.03 88 1014.2
20260508011541 69 111 1.0 5.0 0.00 0.03 0.03 88 1014.5
20260508010050 70 34 1.0 4.0 0.00 0.03 0.03 87 1014.2
20260508004545 71 319 1.0 3.0 0.00 0.03 0.03 86 1014.0
20260508003043 72 51 0.0 3.0 0.00 0.03 0.03 86 1014.2
20260508001543 73 137 1.0 4.0 0.00 0.03 0.03 85 1014.0
20260508000044 73 9 1.0 4.0 0.00 0.03 0.03 84 1014.0
20260507234544 74 0 1.0 5.0 0.00 0.03 0.03 84 1013.7